Theta_e
316 316 315 315 314 314 314 314 314 313 313 313 313 313 313 312 312 302 295 301 305 314 313 305 304 306 307 302 307 306 294 290 295 295 298 306 304 308 305 301 306 314 319 325 331
315 314 314 314 313 313 313 313 313 313 313 313 313 312 312 311 301 297 307 317 314 314 301 297 295 300 299 300 303 299 293 293 298 299 300 305 306 309 306 302 309 315 325 331 332
314 314 314 313 313 313 313 313 313 313 313 312 312 312 311 308 293 294 311 314 313 310 306 302 301 301 297 298 299 297 292 297 299 302 304 305 305 311 307 299 302 314 325 328 329
314 313 313 313 313 313 313 313 312 312 312 312 311 311 311 301 283 298 312 313 311 302 300 300 298 296 293 293 297 292 298 299 301 304 304 304 309 307 309 307 310 315 326 327 328
313 313 313 313 312 312 312 312 312 312 312 311 311 310 304 292 293 303 311 307 299 299 297 297 294 293 291 293 296 294 295 299 301 304 303 305 303 306 307 312 312 310 321 322 326
313 312 312 312 312 312 311 311 312 312 312 311 310 308 297 288 301 302 300 299 299 297 296 296 295 294 292 293 293 294 296 297 299 301 303 300 302 304 308 312 311 311 310 318 323
312 312 311 311 311 311 311 312 312 311 311 311 308 303 294 291 301 300 300 298 298 298 295 300 298 294 291 292 295 295 292 293 294 298 299 303 297 298 306 311 309 308 309 317 321
311 311 311 310 310 310 311 311 312 311 312 308 307 300 289 300 298 298 297 296 298 301 300 301 301 295 293 293 292 291 291 283 290 296 299 298 291 300 306 307 306 308 309 312 319
311 311 310 310 310 310 310 311 309 308 308 305 299 293 288 301 293 297 294 293 295 301 301 302 299 291 293 288 282 286 279 283 287 295 297 296 292 300 305 305 304 307 307 309 318
310 310 309 309 309 309 310 309 305 302 300 302 299 287 290 287 294 296 296 296 292 297 295 293 290 284 286 284 273 278 280 283 283 290 294 293 293 300 302 303 303 306 307 308 315
309 309 308 309 309 309 303 293 289 286 290 285 287 288 290 293 295 293 294 294 292 289 282 289 282 279 281 283 285 284 283 284 285 292 291 291 293 297 302 303 303 303 305 307 310
308 307 307 308 309 306 296 290 290 292 284 290 291 291 293 292 288 291 295 288 286 281 284 284 279 285 287 286 285 284 281 281 286 290 289 289 291 297 301 303 302 303 305 307 310
307 307 307 308 308 298 293 292 297 295 283 286 291 289 290 290 287 288 294 290 284 282 281 277 282 288 286 286 283 284 282 281 283 287 290 289 286 293 298 302 304 305 307 308 310
307 306 307 309 295 295 290 296 297 297 269 280 285 288 289 290 287 295 296 290 287 281 283 280 286 286 284 282 285 276 288 286 285 284 279 288 278 286 294 298 301 303 305 307 308
306 306 307 306 293 290 293 295 296 291 260 281 284 292 289 286 287 288 296 292 283 283 282 278 282 282 281 282 286 281 290 287 287 281 280 281 281 284 294 294 296 299 303 306 308
306 306 307 297 293 296 294 295 290 269 258 278 284 282 282 284 285 286 290 291 291 283 282 282 287 285 283 286 286 290 286 286 286 284 270 277 281 281 288 293 296 299 303 304 307
306 306 303 301 289 294 293 287 270 263 279 276 277 281 281 278 280 281 276 281 276 268 268 278 280 286 287 281 286 286 276 269 269 267 268 285 282 284 288 295 298 299 301 304 308
307 304 300 299 293 293 287 275 264 274 274 280 280 280 277 278 277 277 277 276 280 271 268 268 269 283 287 282 278 281 278 268 262 265 272 284 277 284 292 295 300 302 303 304 308
302 292 291 292 294 291 280 267 266 274 279 278 278 275 274 278 274 273 274 277 281 273 266 265 272 284 287 286 284 277 274 285 268 272 273 278 282 288 291 293 298 299 301 304 308
290 288 288 294 293 285 275 271 275 280 280 279 273 275 272 274 270 269 269 281 276 279 277 271 269 282 285 288 284 282 284 275 276 264 269 275 279 280 284 286 295 299 299 303 309
288 284 290 293 289 279 268 269 277 282 281 277 275 273 273 270 271 270 269 278 278 277 278 277 274 276 282 281 276 278 273 278 279 278 272 275 276 284 284 286 286 296 300 303 308
284 275 291 287 275 266 268 277 283 279 281 279 278 277 274 274 270 268 271 275 281 279 268 277 275 270 277 283 286 284 281 280 271 272 277 276 275 284 286 286 288 292 299 305 309
280 281 289 284 268 267 276 278 280 278 278 278 277 278 277 274 266 273 275 280 281 278 271 275 268 266 270 281 285 279 283 282 283 280 274 275 276 287 286 286 288 289 298 306 309
278 271 277 278 273 273 272 275 275 280 278 279 278 278 275 272 275 271 273 278 279 279 285 280 271 271 268 272 279 273 278 282 283 276 279 278 280 283 283 283 284 287 296 303 309
279 274 278 268 272 272 270 275 275 275 278 278 276 276 274 261 267 268 274 275 277 281 278 272 270 269 276 278 279 278 272 277 275 282 279 281 281 281 282 282 283 286 292 298 304
276 274 276 274 278 270 270 269 274 276 276 274 274 276 275 267 270 268 272 272 271 275 271 274 268 274 270 280 280 277 279 282 282 283 281 281 279 284 284 284 282 283 287 291 293
284 284 279 277 271 267 268 271 274 275 277 278 277 275 274 276 278 279 279 278 277 272 268 269 269 269 266 275 280 272 274 279 276 278 279 277 279 283 281 281 281 282 284 287 290
Wind_Speed
17 19 19 19 19 20 21 21 21 20 21 21 21 21 21 21 19 8 12 11 6 14 6 8 5 9 6 5 5 4 6 13 9 11 6 5 5 4 5 5 3 2 7 11 16
18 18 19 19 20 21 21 21 22 22 21 20 20 20 18 19 6 13 11 14 5 8 5 5 8 8 5 5 4 7 7 15 5 5 3 11 3 2 3 4 4 3 9 19 16
17 19 20 21 21 22 23 22 22 22 22 21 20 18 18 9 5 6 7 10 4 6 9 6 8 9 10 6 6 6 8 11 4 5 8 3 8 2 5 5 4 6 15 17 17
18 19 20 21 21 22 23 23 23 22 22 20 18 16 15 3 2 4 12 10 8 3 5 5 6 3 4 10 4 4 6 10 4 4 5 4 2 7 2 4 9 6 12 9 14
18 19 21 22 23 23 24 24 23 22 19 17 15 10 4 3 8 8 13 6 2 2 4 3 7 3 4 5 3 9 3 7 7 6 7 8 7 7 7 7 8 12 4 9 10
18 20 21 22 23 24 25 25 24 22 18 15 11 7 2 4 5 7 6 3 4 1 1 2 1 7 3 3 4 6 6 13 8 6 6 6 14 8 3 5 6 10 13 5 10
18 19 21 22 23 25 27 27 25 24 19 12 4 2 1 11 3 8 7 5 3 4 3 2 2 2 5 4 8 9 5 3 5 5 7 5 12 14 4 7 5 7 9 7 9
19 20 22 22 24 25 26 28 27 21 14 4 1 0 6 6 5 7 5 7 2 3 3 5 2 2 2 6 4 4 4 2 3 8 4 15 7 10 9 7 5 9 6 7 8
20 21 22 23 24 24 24 27 26 12 13 3 3 4 8 7 6 10 3 4 1 5 4 6 2 2 2 1 3 3 3 5 4 6 5 9 5 10 12 10 5 10 7 8 8
20 21 23 23 23 22 21 22 20 9 11 5 3 2 5 8 7 8 5 4 4 5 3 3 3 1 2 3 5 4 4 1 3 3 10 5 5 4 14 15 12 9 1 6 8
20 22 24 24 22 19 9 5 9 10 9 2 6 5 8 7 6 7 7 4 2 1 2 1 1 4 7 7 3 1 1 3 4 5 5 9 7 6 12 11 12 10 3 4 5
21 22 25 23 20 9 5 6 2 5 8 4 8 9 10 5 5 9 5 5 3 4 1 1 7 7 5 6 7 4 5 2 6 6 3 6 9 13 10 11 14 7 9 8 1
21 23 24 21 13 5 6 4 5 1 3 8 5 5 9 2 4 6 4 4 2 4 4 4 6 6 7 4 7 7 8 4 4 8 5 3 3 6 8 4 11 15 16 6 6
21 22 21 23 6 4 2 6 5 1 6 10 8 7 9 9 1 4 6 3 4 4 6 4 4 4 3 4 7 1 3 8 4 1 1 4 3 4 7 10 12 14 17 16 11
21 21 17 8 2 2 5 6 4 4 8 15 7 5 14 8 7 9 3 5 3 4 2 5 6 4 3 1 6 5 6 5 6 6 3 2 3 6 7 9 11 11 12 11 10
22 19 14 3 2 5 4 2 5 10 4 8 6 12 11 9 7 9 8 7 2 4 3 7 4 2 4 3 1 5 4 5 4 4 1 6 6 5 8 19 12 11 15 14 13
22 17 6 2 5 6 3 4 8 9 6 9 8 13 5 12 8 9 5 11 6 9 8 7 6 3 1 4 4 5 5 2 4 3 6 3 6 9 1 4 16 19 15 13 14
19 9 4 2 6 4 4 8 11 4 3 6 8 10 6 13 7 10 8 5 5 5 2 5 9 5 8 2 3 3 4 5 6 4 3 3 3 6 5 8 7 8 14 16 17
10 4 4 7 8 2 8 9 6 3 5 6 9 5 6 8 3 8 6 6 4 2 2 3 6 6 5 4 3 5 1 1 6 2 4 3 5 8 6 3 7 14 15 18 20
3 2 4 14 6 6 8 5 1 3 5 3 4 3 5 8 10 6 3 4 6 7 2 5 6 3 7 3 2 4 4 2 3 4 2 2 1 3 11 11 4 13 15 16 16
4 4 6 13 5 8 5 2 2 4 6 3 3 4 4 2 4 4 6 1 5 8 6 1 3 6 7 1 2 3 4 2 2 2 3 4 1 7 7 10 8 9 14 16 16
3 5 7 6 8 2 2 3 7 7 6 5 4 3 4 4 4 4 3 4 9 10 6 4 2 5 4 9 6 4 4 3 4 3 2 2 1 7 10 12 11 3 14 15 19
3 1 6 6 5 4 4 5 4 8 6 5 5 5 5 4 5 4 5 6 9 10 3 5 3 6 7 4 2 4 3 2 2 1 2 3 2 11 14 15 15 11 7 13 16
4 4 6 6 1 5 2 5 6 7 1 4 3 4 6 3 1 9 11 7 17 6 7 5 2 4 4 7 2 5 3 6 3 1 1 2 2 13 16 16 18 18 11 6 12
4 2 3 2 5 3 4 1 4 7 3 6 4 6 5 3 7 3 4 9 6 5 6 4 4 2 9 17 13 10 5 4 2 2 1 7 4 7 11 12 12 13 15 11 7
4 3 4 1 1 5 6 4 4 4 2 5 3 10 5 4 7 13 7 0 7 6 6 4 4 4 5 4 7 8 3 4 5 5 6 8 5 2 7 6 16 16 14 12 10
2 2 5 4 3 5 3 4 4 3 5 2 8 5 9 10 9 15 14 13 13 5 3 2 2 5 7 7 2 9 14 5 5 12 4 4 5 6 6 9 12 14 15 13 11
Wind_Direction
350 351 348 345 343 340 338 335 332 330 330 327 324 325 328 327 321 310 288 231 252 251 281 288 292 284 272 248 204 158 232 225 229 199 208 179 190 259 302 265 309 3 148 143 137
350 347 345 343 340 336 333 333 331 329 327 325 323 325 325 325 338 297 264 16 228 4 351 333 277 270 224 214 225 195 219 235 202 233 252 257 296 33 335 312 330 28 91 138 140
347 345 342 340 338 334 331 331 330 327 325 323 325 325 325 339 342 255 333 329 247 256 259 282 259 233 212 220 197 202 223 232 226 236 313 185 279 38 360 267 359 243 144 146 144
347 344 341 336 334 333 330 330 329 324 325 328 326 319 322 41 335 287 318 297 319 353 292 311 325 213 224 213 222 256 210 247 294 207 327 342 344 255 169 294 318 277 154 144 153
346 340 340 338 336 335 330 328 326 325 326 328 325 330 358 358 251 263 310 327 13 347 357 353 339 311 215 334 235 237 241 250 251 197 255 295 279 298 251 283 344 10 291 135 147
344 342 339 339 337 334 329 326 326 325 321 321 331 325 60 291 248 283 295 259 230 200 316 338 337 324 277 275 279 341 233 239 253 206 219 298 278 309 219 89 4 8 348 195 141
343 339 338 339 338 334 331 326 325 325 315 310 348 347 276 246 265 318 310 281 232 178 195 267 229 128 326 281 2 293 291 252 219 202 174 154 268 234 218 19 317 353 4 282 164
342 341 339 338 337 335 331 325 325 321 312 335 158 199 256 261 269 284 288 296 352 338 184 241 121 151 285 312 288 229 216 157 247 187 194 123 270 240 213 173 263 311 332 314 173
343 341 337 336 336 336 331 323 329 331 349 295 95 128 282 309 337 304 248 266 354 33 39 111 46 16 236 281 1 297 197 189 274 200 172 159 180 234 155 154 197 264 342 337 153
345 340 337 337 337 338 332 323 331 14 344 84 108 37 307 303 293 297 286 243 235 148 78 63 43 65 278 170 200 188 194 200 229 246 196 177 186 101 173 179 185 225 291 335 171
345 343 338 339 340 345 346 12 10 349 38 297 284 250 267 276 293 287 289 333 26 116 270 109 355 241 208 235 295 64 74 334 317 299 310 198 169 201 174 187 174 191 211 317 292
346 345 339 339 340 19 33 62 97 209 316 282 255 251 266 252 309 313 9 15 353 298 37 85 260 234 212 253 239 242 252 234 300 276 239 268 203 198 186 177 176 149 231 193 19
348 345 341 335 334 57 74 43 301 211 261 298 260 278 290 296 302 316 350 325 326 330 327 193 255 262 224 150 218 233 230 187 250 347 290 282 300 193 191 182 173 179 205 159 82
348 346 341 329 50 330 16 324 320 134 64 337 352 344 342 317 55 335 350 325 349 307 318 259 301 358 271 221 146 154 225 213 207 269 279 344 272 239 183 185 193 191 180 184 153
347 344 339 4 277 37 273 317 335 52 58 323 332 303 320 16 319 341 12 5 298 288 328 269 319 359 349 7 160 203 159 142 184 169 67 318 100 272 177 197 196 184 183 173 155
344 343 340 359 347 245 299 317 53 45 302 330 328 335 352 354 359 313 9 354 343 332 311 255 264 318 230 311 237 145 87 53 100 137 80 221 142 259 196 212 187 182 187 177 175
342 336 323 280 296 310 335 53 45 80 328 338 332 330 344 345 336 355 356 31 31 7 6 331 337 290 190 342 22 82 73 57 47 25 210 67 169 241 255 205 192 190 186 166 170
340 346 307 251 313 322 47 53 66 276 350 295 319 320 14 7 342 336 357 8 17 63 6 19 335 23 344 324 216 178 137 148 159 157 208 113 265 246 232 219 187 177 171 165 174
359 352 340 318 331 44 67 49 177 299 303 310 330 1 338 355 339 5 6 8 31 19 89 10 281 324 299 316 146 282 330 221 101 341 70 206 276 303 310 34 157 158 161 174 177
69 32 307 334 347 54 66 115 124 8 321 7 9 12 344 328 1 34 334 349 336 9 158 271 295 280 312 320 240 125 204 54 12 112 178 319 25 347 340 348 290 164 172 179 176
54 53 288 343 38 45 94 217 326 348 9 356 330 299 344 326 280 294 267 341 342 323 327 246 213 290 341 73 211 56 341 20 108 138 182 132 356 358 322 294 291 187 180 172 175
66 45 307 4 52 15 52 344 336 353 356 3 346 359 3 334 303 293 287 225 14 347 330 288 244 280 252 279 309 278 173 149 116 225 211 122 317 12 345 326 338 281 181 176 169
79 278 322 55 75 342 324 353 12 6 4 359 336 12 22 323 337 252 320 310 6 338 335 300 321 329 356 71 29 49 6 281 154 90 294 120 218 27 0 350 353 356 166 160 160
75 34 337 43 76 121 47 355 349 335 331 352 303 28 357 325 333 299 304 306 329 296 292 5 265 211 215 231 103 300 337 320 123 338 164 96 320 358 354 351 353 3 10 82 153
46 251 179 352 340 75 76 297 336 357 356 354 348 359 322 311 310 255 301 319 296 343 4 94 264 223 259 271 256 239 232 272 165 164 325 158 82 359 348 332 352 5 16 46 76
105 116 6 134 357 62 357 319 321 323 263 303 300 306 284 205 203 280 282 230 252 334 348 341 286 327 300 306 50 97 339 227 64 101 100 116 101 27 331 337 20 11 7 14 35
323 14 98 342 31 73 250 258 295 357 302 270 313 315 302 271 254 268 263 251 246 277 304 311 312 359 281 322 233 37 347 28 101 45 344 67 22 39 338 25 25 8 360 357 356